Weather History for KVJI - March, 2013

Change the Weather History Date:

Sunday, March 31, 2013

  Actual Average (KTRI) Record (KTRI)
Temperature  
Mean Temperature 52 °F 51 °F  
Max Temperature 59 °F 64 °F 81 °F (1963)
Min Temperature 45 °F 38 °F 19 °F (1964)
Degree Days  
Heating Degree Days 13 14  
Month to date heating degree days 568  
Since 1 July heating degree days 3950  
Cooling Degree Days 0 0  
Month to date cooling degree days 1  
Year to date cooling degree days 1  
Growing Degree Days 2 (Base 50)    
Moisture  
Dew Point 49 °F    
Average Humidity 94    
Maximum Humidity 100    
Minimum Humidity 68    
Precipitation  
Precipitation 0.44 in 0.11 in 1.13 in (1954)
Month to date precipitation 3.44  
Year to date precipitation 10.26  
Snow  
Snow 0.00 in 0.00 in - ()
Month to date snowfall 1.4  
Since 1 July snowfall 12.2  
Snow Depth -    
Sea Level Pressure  
Sea Level Pressure 29.89 in    
Wind  
Wind Speed 4 mph (West)    
Max Wind Speed 17 mph    
Max Gust Speed 24 mph    
Visibility 7 miles    
Events Fog , Rain    
T = Trace of Precipitation, MM = Missing Value Source: NWS Daily Summary

Daily Weather History Graph

Daily Weather History Graph

Search for Another Location

Airport or City:

Trip Planner

Search our weather history database for the weather conditions in past years. The results will help you decide how hot, cold, wet, or windy it might be!

Date:

Astronomy

Mar. 31, 2013 Rise Set
Actual Time 7:15 AM EDT 7:49 PM EDT
Civil Twilight 6:49 AM EDT 8:15 PM EDT
Nautical Twilight 6:18 AM EDT 8:46 PM EDT
Astronomical Twilight 5:47 AM EDT 9:17 PM EDT
Moon No Moon Rise 10:08 AM EDT (3/31)
Length of Visible Light 13h 26m
Length of Day
12h 34m
Waning Gibbous, 78% of the Moon is Illuminated
Mar 31
Waning Gibbous
Apr 3
Last Quarter
Apr 10
New
Apr 18
First Quarter
Apr 25
Full

Hourly Weather History & Observations

Time (EDT) Temp. Windchill Dew Point Humidity Pressure Visibility Wind Dir Wind Speed Gust Speed Precip Events Conditions
12:15 AM 48.4 °F - 40.1 °F 73% 30.02 in 10.0 mi Calm Calm - N/A   Clear
12:35 AM 48.2 °F - 39.7 °F 73% 30.01 in 10.0 mi Calm Calm - N/A   Clear
12:55 AM 48.4 °F - 39.2 °F 71% 30.00 in 10.0 mi Calm Calm - N/A   Clear
1:15 AM 47.8 °F - 39.2 °F 72% 29.99 in 10.0 mi Calm Calm - N/A   Mostly Cloudy
1:35 AM 49.5 °F - 39.2 °F 68% 29.99 in 10.0 mi Calm Calm - N/A   Overcast
1:55 AM 47.5 °F - 40.3 °F 76% 29.99 in 10.0 mi Calm Calm - N/A   Drizzle
2:15 AM 46.6 °F - 41.5 °F 83% 30.00 in 10.0 mi Calm Calm - N/A Rain Rain
2:35 AM 46.6 °F - 43.3 °F 88% 30.00 in 7.0 mi Calm Calm - 0.02 in Rain Rain
2:55 AM 46.2 °F - 44.8 °F 95% 29.99 in 5.0 mi Calm Calm - 0.05 in Rain Rain
3:15 AM 45.5 °F 44.2 °F 44.6 °F 97% 29.99 in 5.0 mi SW 3.5 mph - 0.04 in Rain Rain
3:35 AM 45.5 °F - 45.1 °F 99% 29.97 in 4.0 mi Calm Calm - 0.09 in Rain Rain
3:55 AM 45.9 °F 44.6 °F 45.9 °F 100% 29.95 in 4.0 mi East 3.5 mph - 0.11 in Rain Rain
4:15 AM 46.4 °F 43.5 °F 46.4 °F 100% 29.94 in 5.0 mi East 5.8 mph - 0.02 in Rain Light Rain
4:35 AM 46.9 °F - 46.9 °F 100% 29.92 in 7.0 mi East 3.5 mph - 0.03 in Rain Light Rain
4:55 AM 47.3 °F - 47.3 °F 100% 29.91 in 5.0 mi East 5.8 mph - 0.04 in Rain Light Rain
5:15 AM 46.9 °F - 46.9 °F 100% 29.90 in 5.0 mi East 6.9 mph - 0.02 in Rain Light Rain
5:35 AM 47.3 °F - 47.3 °F 100% 29.90 in 7.0 mi East 5.8 mph - 0.03 in Rain Rain
5:55 AM 47.3 °F - 47.3 °F 100% 29.89 in 7.0 mi East 5.8 mph - 0.04 in Rain Light Rain
6:15 AM 47.3 °F - 47.3 °F 100% 29.89 in 5.0 mi Calm Calm - 0.02 in Rain Rain
6:35 AM 46.9 °F - 46.9 °F 100% 29.89 in 10.0 mi Calm Calm - 0.03 in Rain Light Rain
6:55 AM 46.8 °F - 46.8 °F 100% 29.88 in 10.0 mi Calm Calm - 0.03 in   Overcast
7:15 AM 46.9 °F - 46.9 °F 100% 29.89 in 7.0 mi Calm Calm - 0.01 in Rain Light Rain
7:35 AM 46.9 °F - 46.9 °F 100% 29.89 in 5.0 mi ESE 3.5 mph - 0.02 in Rain Rain
7:55 AM 46.9 °F - 46.9 °F 100% 29.89 in 1.8 mi East 3.5 mph - 0.04 in   Drizzle
8:15 AM 46.9 °F - 46.9 °F 100% 29.88 in 1.2 mi East 3.5 mph - 0.02 in   Drizzle
8:35 AM 47.1 °F - 47.1 °F 100% 29.89 in 1.0 mi Calm Calm - 0.03 in Rain Rain
8:55 AM 47.3 °F - 47.3 °F 100% 29.89 in 1.5 mi Calm Calm - 0.04 in Rain Light Rain
9:15 AM 47.5 °F - 47.5 °F 100% 29.88 in 1.8 mi Calm Calm - N/A   Light Drizzle
9:35 AM 47.8 °F - 47.8 °F 100% 29.89 in 2.5 mi Calm Calm - N/A   Overcast
9:55 AM 48.2 °F - 48.2 °F 100% 29.89 in 1.2 mi Calm Calm - 0.01 in   Overcast
10:15 AM 48.6 °F - 48.6 °F 100% 29.89 in 0.8 mi Calm Calm - N/A   Overcast
10:55 AM 50.9 °F - 50.9 °F 100% 29.89 in 0.5 mi West 5.8 mph - N/A Fog Fog
11:15 AM 51.6 °F - 51.6 °F 100% 29.89 in 1.8 mi West 10.4 mph - N/A   Overcast
11:35 AM 52.0 °F - 52.0 °F 100% 29.88 in 2.5 mi West 8.1 mph - N/A   Overcast
11:55 AM 52.3 °F - 52.3 °F 100% 29.88 in 10.0 mi West 8.1 mph - N/A   Overcast
12:15 PM 52.9 °F - 52.9 °F 100% 29.88 in 7.0 mi West 10.4 mph - N/A   Light Drizzle
12:35 PM 53.8 °F - 53.8 °F 100% 29.86 in 10.0 mi West 13.8 mph 18.4 mph N/A   Overcast
12:55 PM 54.9 °F - 53.8 °F 96% 29.86 in 10.0 mi WNW 11.5 mph 20.7 mph N/A   Overcast
1:15 PM 54.9 °F - 53.8 °F 96% 29.86 in 10.0 mi West 12.7 mph 17.3 mph N/A Rain Light Rain
1:35 PM 56.8 °F - 54.5 °F 92% 29.86 in 10.0 mi WNW 17.3 mph 24.2 mph N/A   Overcast
1:55 PM 57.0 °F - 53.8 °F 89% 29.86 in 10.0 mi WNW 12.7 mph 18.4 mph N/A   Overcast
2:15 PM 57.6 °F - 52.5 °F 83% 29.87 in 10.0 mi WNW 17.3 mph 23.0 mph N/A   Overcast
2:35 PM 57.9 °F - 52.7 °F 83% 29.87 in 10.0 mi WNW 13.8 mph 21.9 mph N/A   Overcast
2:55 PM 59.0 °F - 52.5 °F 79% 29.87 in 10.0 mi WNW 12.7 mph 21.9 mph N/A   Overcast
3:15 PM 58.5 °F - 51.8 °F 79% 29.86 in 10.0 mi NW 8.1 mph 17.3 mph N/A   Overcast
3:35 PM 58.6 °F - 52.2 °F 79% 29.86 in 10.0 mi NW 8.1 mph - N/A   Overcast
3:55 PM 59.0 °F - 51.4 °F 76% 29.86 in 10.0 mi NW 10.4 mph - N/A   Overcast
4:15 PM 59.0 °F - 50.9 °F 74% 29.85 in 10.0 mi WNW 8.1 mph 17.3 mph N/A   Overcast
4:35 PM 59.0 °F - 53.6 °F 82% 29.85 in 10.0 mi West 9.2 mph - N/A   Overcast
4:55 PM 56.8 °F - 53.2 °F 88% 29.85 in 10.0 mi West 8.1 mph - N/A   Overcast
5:15 PM 55.4 °F - 54.1 °F 96% 29.85 in 5.0 mi WNW 6.9 mph - 0.04 in Rain Rain
5:35 PM 55.0 °F - 54.7 °F 99% 29.85 in 10.0 mi West 5.8 mph - 0.04 in Rain Light Rain
5:55 PM 54.7 °F - 54.7 °F 100% 29.84 in 10.0 mi WSW 11.5 mph - 0.05 in Rain Light Rain
6:15 PM 54.5 °F - 54.5 °F 100% 29.84 in 7.0 mi WSW 9.2 mph - 0.01 in Rain Light Rain
6:35 PM 54.5 °F - 54.5 °F 100% 29.84 in 7.0 mi WSW 10.4 mph - 0.01 in Rain Light Rain
6:55 PM 54.0 °F - 54.0 °F 100% 29.85 in 10.0 mi West 5.8 mph - 0.01 in   Overcast
7:15 PM 53.8 °F - 53.8 °F 100% 29.85 in 10.0 mi West 5.8 mph - N/A   Overcast
7:35 PM 53.6 °F - 53.6 °F 100% 29.85 in 10.0 mi West 5.8 mph - N/A   Overcast
7:55 PM 53.1 °F - 53.1 °F 100% 29.85 in 10.0 mi WSW 5.8 mph - N/A   Overcast
8:15 PM 52.7 °F - 52.7 °F 100% 29.85 in 10.0 mi West 4.6 mph - N/A   Overcast
8:35 PM 52.7 °F - 52.7 °F 100% 29.85 in 10.0 mi WSW 6.9 mph - N/A Rain Light Rain
8:55 PM 52.2 °F - 52.2 °F 100% 29.86 in 10.0 mi West 4.6 mph - 0.01 in Rain Rain
9:15 PM 51.8 °F - 51.8 °F 100% 29.86 in 7.0 mi West 4.6 mph - N/A   Light Drizzle
9:35 PM 51.8 °F - 51.8 °F 100% 29.86 in 7.0 mi West 4.6 mph - N/A   Overcast
9:55 PM 51.6 °F - 51.6 °F 100% 29.87 in 7.0 mi West 4.6 mph - N/A   Overcast
10:15 PM 51.4 °F - 51.4 °F 100% 29.87 in 5.0 mi WSW 5.8 mph - N/A Rain Light Rain
10:35 PM 51.1 °F - 51.1 °F 100% 29.87 in 5.0 mi West 4.6 mph - 0.01 in Rain Light Rain
10:55 PM 50.7 °F - 50.7 °F 100% 29.87 in 4.0 mi WSW 5.8 mph - 0.01 in   Overcast
11:15 PM 50.9 °F - 50.9 °F 100% 29.88 in 4.0 mi WSW 5.8 mph - N/A   Overcast
11:35 PM 50.9 °F - 50.9 °F 100% 29.88 in 5.0 mi WSW 4.6 mph - N/A   Overcast
11:55 PM 50.9 °F - 50.9 °F 100% 29.89 in 5.0 mi West 6.9 mph - N/A   Overcast